weather.gov     
National Weather Service

Regional Weather Roundup
NWS Homepage
This page is being discontinued on March 12, 2014.
The same data is available at this site. Please update your bookmarks.
Thank you, and we apologize for the inconvenience.
Please send an email to SR-SRH.Webmaster@noaa.gov with any concerns.


Current Version
Previous Version:    01  02  03  04  05  06  07  08  09  10  11  12  13  14  15  16  17  18  19  20  21  22  23  24  25  26  27  
[Printable]
866
ASUS42 KTBW 261910
RWRFL
FLORIDA REGIONAL WEATHER ROUNDUP
NATIONAL WEATHER SERVICE TAMPA BAY RUSKIN FL
300 PM EDT SAT JUL 26 2014

NOTE: "FAIR" INDICATES FEW OR NO CLOUDS BELOW 12,000 FEET WITH NO
SIGNIFICANT WEATHER AND/OR OBSTRUCTIONS TO VISIBILITY.


FLZ001>010-012>015-112-114-115-262000-
PANHANDLE FLORIDA

CITY           SKY/WX    TMP DP  RH WIND       PRES   REMARKS
PENSACOLA      MOSUNNY   89  74  60 SW8       30.04F HX  98
PENSACOLA NAS  MOSUNNY   88  79  74 SW16      30.04F HX 103
MILTON NAS     MOSUNNY   92  73  53 NW6       30.04F HX 100
CRESTVIEW      MOSUNNY   92  72  51 CALM      30.05F HX  99
DUKE FIELD     FAIR      92  79  65 N6        30.04F HX 109
VALPARAISO     PTSUNNY   88  78  72 S13       30.04F HX 101
TRI COUNTY     FAIR      92  75  57 VRB5      30.04F HX 103
PANAMA CITY    FAIR      86  74  67 CALM      30.06R
TYNDALL AFB    MOSUNNY   88  80  78 W10       30.07F HX 105
APALACHICOLA   PTSUNNY   88  76  67 W13       30.06F HX  99

STATION/POSITION SKY/WX   TEMP    WIND        PRES    WAVE   SWELL
                          AIR SEA DIR/SP/G            HT/PER HT/PER
                          (F)     (DEG/KT/KT) (MB)    (FT/S) (FT/S)
30.1N   87.6W              83 85  250/ 10/ 12 1018.0F   2/ 4
29.2N   88.2W              83 88  250/  8/ 10 1019.0F
28.8N   86.0W              84 85  270/ 10/ 12 1018.7    2/ 4   2/ 6
PANAMA CITY BEAC           83 85  260/ 13/ 14 1018.0R
CAPE SAN BLAS    NOT AVBL
TOWER C                    83     270/ 10/ 11 1018.5F
28.5N   84.5W              85 86  280/  8/ 10 1019.0F   2/ 5   2/ 5

$$
FLZ011-016>038-118-127-128-134-139-239-262000-
NORTH FLORIDA

CITY           SKY/WX    TMP DP  RH WIND       PRES   REMARKS
MARIANNA       MOSUNNY   93  75  55 VRB7      30.03F HX 104
TALLAHASSEE    PTSUNNY   92  74  55 S10       30.03F HX 101
PERRY          CLOUDY    88  73  62 W12       30.08S HX  96
CROSS CITY       N/A     91  74  57 W12       30.06F HX 100
GAINESVILLE    MOSUNNY   88  74  63 NW9G17    30.06F HX  96
MAYPORT NAS    PTSUNNY   91  70  49 W7        30.03F THUNDER HX  96
JACKSONVILLE   PTSUNNY   81  77  88 CALM      30.05R
JAX NAS        PTSUNNY   93  71  48 SW21G30   30.05S HX 100
JAX CRAIG      PTSUNNY   91  72  53 VRB6      30.03F THUNDER HX  98
JAX CECIL      TSTM      90  73  58 SW14      30.05S HX  98
FERNANDINA BEA FAIR      86  73  66 W7        30.03F
ST AUGUSTINE   PTSUNNY   93  72  50 VRB6      30.04F HAZE    HX 101

STATION/POSITION SKY/WX   TEMP    WIND        PRES    WAVE   SWELL
                          AIR SEA DIR/SP/G            HT/PER HT/PER
                          (F)     (DEG/KT/KT) (MB)    (FT/S) (FT/S)
SHELL POINT      NOT AVBL
KEATON BEACH               84     250/ 12/ 14 1018.4F
CEDAR KEY                  86     260/  8/ 11 1018.7F
FERNANDINA                 83 86  280/  4/  6 1016.6F
30.7N   81.3W                 85                N/A     2/ 7
MAYPORT                    90 87  290/  8/ 10   N/A
31.4N   80.9W              83 85  220/ 14/ 16 1016.6F   2/ 8   2/ 8
ST AUGUSTINE               92     230/  9/ 10 1018.0F

$$
FLZ040-043>046-052-053-057-058-063-144-262000-
INTERIOR CENTRAL FLORIDA

CITY           SKY/WX    TMP DP  RH WIND       PRES   REMARKS
OCALA          MOSUNNY   91  70  49 W12G18    30.07F HX  97
LEESBURG       PTSUNNY   90  76  63 VRB3      30.09F HX 101
SANFORD        MOSUNNY   84  75  74 N8        30.07F THUNDER
ORLANDO EXEC   LGT RAIN  84  75  74 SE8       30.07F
ORLANDO INTL   PTSUNNY   93  73  52 VRB3      30.07F HX 102
KISSIMMEE      PTSUNNY   93  73  52 W5        30.08F HX 102
WINTER HAVEN   PTSUNNY   85  74  69 SW9       30.10F
LAKELAND       PTSUNNY   82  73  74 CALM      30.10F
BARTOW         PTSUNNY   81  73  78 CALM      30.10F
OKEECHOBEE     MOSUNNY   91  73  55 MISG      30.07F HX 100

$$
FLZ041-047-054-059-064-141-147-262000-
EAST CENTRAL FLORIDA

CITY           SKY/WX    TMP DP  RH WIND       PRES   REMARKS
ORMOND BEACH   SUNNY     90  73  58 W7        30.07F HX  98
DAYTONA BEACH  PTSUNNY   92  73  53 W12       30.06F THUNDER HX 100
DELAND         MOCLDY    88  75  66 MISG      30.09R HX  97
NEW SMYRNA BEA PTSUNNY   81  72  74 SW20G26   30.10R THUNDER VSB 1
JFK SPACE CTR  MOSUNNY   90  81  74 E9        30.07F HX 110
TITUSVILLE     MOSUNNY   90  73  58 W7        30.07F HX  98
CAPE CANAVERAL SUNNY     92  77  62 SE13      30.06F HX 105
PATRICK AFB    SUNNY     89  79  70 SE10      30.07F HX 104
MELBOURNE      MOSUNNY   94  72  48 MISG      30.06F HX 102
VERO BEACH     MOSUNNY   89  79  72 E10       30.08F HX 104
FT PIERCE      MOSUNNY   90  73  57 SE8       30.07F HX  98
STUART         PTSUNNY   88  77  70 E12       30.10F HX 100

STATION/POSITION SKY/WX   TEMP    WIND        PRES    WAVE   SWELL
                          AIR SEA DIR/SP/G            HT/PER HT/PER
                          (F)     (DEG/KT/KT) (MB)    (FT/S) (FT/S)
28.5N   80.2W              84 86  160/  2/  4 1019.4F
28.9N   78.5W              84 85  190/ 10/ 12 1019.3F   2/ 4   2/ 8
TRIDENT PIER               89 87  120/  6/ 11 1017.7F
28.4N   80.5W                 86                N/A     1/ 8
27.6N   80.2W                 84                N/A     1/ 8

$$
FLZ050-056-061-142-242-148-248-149-249-151-251-155-255-
160-260-262000-
WEST CENTRAL FLORIDA

CITY           SKY/WX    TMP DP  RH WIND       PRES   REMARKS
CRYSTAL RIVER  MOCLDY    90  73  58 W10G16    30.08S HX  98
INVERNESS      FAIR      91  68  46 W6        30.07F HX  95
BROOKSVILLE    MOSUNNY   91  71  51 W8        30.09S HX  97
ZEPHYRHILLS    FAIR      86  73  66 W6        30.10F
CLEARWATER     CLOUDY    88  75  65 W8        30.08F HX  97
TAMPA INTL     PTSUNNY   88  74  63 W7        30.09F HX  96
TAMPA EXEC     CLOUDY    90  77  66 NW6       30.09F HX 102
PLANT CITY     PTSUNNY   88  75  66 NW3       30.12S HX  97
MACDILL AFB    PTSUNNY   81  79  94 S2        30.09F
ST PETERSBURG  CLOUDY    89  72  56 W7        30.07F HX  96
SARASOTA       PTSUNNY   91  73  55 W9        30.08F HX  99
VENICE         FAIR      90  75  62 W9        30.10F THUNDER HX 100

STATION/POSITION SKY/WX   TEMP    WIND        PRES    WAVE   SWELL
                          AIR SEA DIR/SP/G            HT/PER HT/PER
                          (F)     (DEG/KT/KT) (MB)    (FT/S) (FT/S)
CEDAR KEY                  86     260/  8/ 11 1018.7F
28.5N   84.5W              85 86  280/  8/ 10 1019.0F   2/ 5   2/ 5
27.3N   84.3W                 90                N/A     1/ 8
CLEARWATER BEACH           86 89  290/  7/ 10 1018.7F
MIDDLE TAMPA BAY           87     300/  6/  9 1019.3S
VENICE                     87 90  280/  7/  8 1018.5F

$$
FLZ066-069-070-075>078-162-262-165-265-262000-
SOUTHWEST FLORIDA AND KEYS

CITY           SKY/WX    TMP DP  RH WIND       PRES   REMARKS
PUNTA GORDA    MOSUNNY   93  73  52 NW7       30.09F HX 102
FT MYERS       TSTM      80  77  90 CALM      30.10R FOG
SOUTHWEST INTL HVY RAIN  81  77  88 SW7       30.10F FOG
NAPLES         CLOUDY    86  79  79 SW6       30.09F HX  99
MARATHON       SUNNY     93  75  55 VRB5      30.09F HX 104
KEY WEST NAS   MOSUNNY   90  75  61 SE8       30.09F HX 100
KEY WEST INTL  SUNNY     91  75  59 SE8       30.10F HX 101

STATION/POSITION SKY/WX   TEMP    WIND        PRES    WAVE   SWELL
                          AIR SEA DIR/SP/G            HT/PER HT/PER
                          (F)     (DEG/KT/KT) (MB)    (FT/S) (FT/S)
VENICE                     87 90  280/  7/  8 1018.5F
NAPLES                     85 92  180/  3/  6 1019.7F
DRY TORTUGAS               84      50/  4/  4 1018.9F
SAND KEY                   85     110/  5/  7 1019.2F
SOMBRERO KEY               89     130/  4/  4 1020.0F
LONG KEY                   87 90  160/  6/  7 1019.8F
MOLASSES REEF              85 87   CALM  /  2 1019.3F

$$
FLZ067-068-071>074-168-172>174-262000-
SOUTHEAST FLORIDA

CITY           SKY/WX    TMP DP  RH WIND       PRES   REMARKS
W PALM BEACH   PTSUNNY   86  76  71 SE6       30.07F HX  96
FT LAUDER-EXEC CLOUDY    84  77  79 S5        30.09F
FT LAUDERDALE  CLOUDY    83  76  79 VRB3      30.09F
POMPANO BEACH  CLOUDY    88  73  61 SE7       30.10F HX  95
PEMBROKE PINES CLOUDY    81  76  84 S5        30.10F
OPA LOCKA      CLOUDY    82  71  69 SW14      30.13R
MIAMI          TSTM      75  69  81 SW6G20    30.14R
WEST KENDALL   PTSUNNY   83  75  77 NE14      30.11R
HOMESTEAD      NOT AVBL

STATION/POSITION SKY/WX   TEMP    WIND        PRES    WAVE   SWELL
                          AIR SEA DIR/SP/G            HT/PER HT/PER
                          (F)     (DEG/KT/KT) (MB)    (FT/S) (FT/S)
PORT EVERGLADES            85     190/  3/  4 1019.0
VIRGINIA KEY               86 89  120/  7/  8   N/A
LAKE WORTH                 85 85              1018.6F
FOWEY ROCKS                86 87  140/  7/  8 1019.8S
SETTLEMENT POINT           85     190/  7/  9 1020.0F

$$





U.S. Dept. of Commerce
NOAA National Weather Service
1325 East West Highway
Silver Spring, MD 20910
E-mail: w-nws.webmaster@noaa.gov
Page last modified: May 16, 2007
NATIONAL WEATHER SERVICE: for Safety, for Work, for Fun - FOR LIFE